FW3675 Weather Reports


Display with metric or nautical units.
time (UTC)temp
F
wind
direction
speed
MPH
gust
MPH
rain 1hr
in
rain 24hr
in
rain mn
in
humidity
%
barometer
mb
20210919054620 72 314 10.0 15.0 0.00 0.00 0.00 31 1005.4
20210919053027 73 284 6.0 14.0 0.00 0.00 0.00 30 1005.5
20210919051557 72 250 6.0 10.0 0.00 0.00 0.00 31 1005.7
20210919050053 70 291 3.0 8.0 0.00 0.00 0.00 33 1005.7
20210919044541 70 1 0.0 4.0 0.00 0.00 0.00 34 1005.8
20210919043046 69 82 1.0 7.0 0.00 0.00 0.00 34 1005.9
20210919041616 69 135 4.0 7.0 0.00 0.00 0.00 36 1006.0
20210919040033 71 139 2.0 5.0 0.00 0.00 0.00 39 1005.9
20210919034523 76 290 3.0 5.0 0.00 0.00 0.00 26 1005.8
20210919033046 75 257 2.0 7.0 0.00 0.00 0.00 26 1005.9
20210919031551 74 317 3.0 6.0 0.00 0.00 0.00 27 1006.0
20210919030046 74 184 1.0 7.0 0.00 0.00 0.00 27 1006.0
20210919024525 75 325 6.0 12.0 0.00 0.00 0.00 26 1005.9
20210919023058 78 350 10.0 15.0 0.00 0.00 0.00 24 1005.9
20210919021540 80 302 12.0 17.0 0.00 0.00 0.00 22 1006.0
20210919020039 79 300 13.0 22.0 0.00 0.00 0.00 22 1005.9
20210919014532 79 336 8.0 14.0 0.00 0.00 0.00 22 1005.9
20210919013049 80 338 7.0 11.0 0.00 0.00 0.00 21 1006.2
20210919011549 81 336 6.0 14.0 0.00 0.00 0.00 20 1006.3
20210919010013 82 307 8.0 14.0 0.00 0.00 0.00 21 1006.3
20210919004550 83 193 2.0 7.0 0.00 0.00 0.00 22 1006.3
20210919003037 81 161 5.0 14.0 0.00 0.00 0.00 19 1006.4
20210919001513 85 152 0.0 3.0 0.00 0.00 0.00 17 1006.4
20210919000046 85 40 3.0 8.0 0.00 0.00 0.00 17 1006.4
20210918234510 86 30 5.0 11.0 0.00 0.00 0.00 16 1006.4
20210918233009 88 81 4.0 10.0 0.00 0.00 0.00 15 1006.6
20210918231515 90 141 9.0 17.0 0.00 0.00 0.00 14 1006.6
20210918230020 91 241 5.0 8.0 0.00 0.00 0.00 13 1007.0
20210918223010 93 58 7.0 9.0 0.00 0.00 0.00 12 1007.2
20210918221744 92 70 5.0 9.0 0.00 0.00 0.00 11 1007.3
20210918220150 91 86 5.0 9.0 0.00 0.00 0.00 12 1007.7
20210918214728 89 193 2.0 7.0 0.00 0.00 0.00 12 1008.3
20210918213151 89 82 2.0 4.0 0.00 0.00 0.00 12 1008.2
20210918211559 90 132 6.0 9.0 0.00 0.00 0.00 12 1008.5
20210918210127 91 164 3.0 14.0 0.00 0.00 0.00 12 1009.0
20210918204638 89 157 3.0 13.0 0.00 0.00 0.00 12 1009.2
20210918203122 88 154 5.0 14.0 0.00 0.00 0.00 14 1009.6
20210918201542 88 175 4.0 13.0 0.00 0.00 0.00 14 1009.9
20210918200041 89 145 8.0 12.0 0.00 0.00 0.00 14 1010.4
20210918194540 88 51 3.0 10.0 0.00 0.00 0.00 20 1010.7
20210918193032 87 46 3.0 13.0 0.00 0.00 0.00 18 1011.2
20210918191520 87 56 3.0 10.0 0.00 0.00 0.00 20 1011.4
20210918190039 86 89 5.0 12.0 0.00 0.00 0.00 23 1011.8
20210918184515 84 72 4.0 11.0 0.00 0.00 0.00 24 1012.2
20210918183029 83 84 3.0 7.0 0.00 0.00 0.00 25 1012.7
20210918181530 80 79 3.0 7.0 0.00 0.00 0.00 27 1013.1
20210918180008 79 210 4.0 9.0 0.00 0.00 0.00 27 1013.4
20210918174707 78 96 2.0 6.0 0.00 0.00 0.00 32 1013.9
20210918173127 75 89 2.0 6.0 0.00 0.00 0.00 34 1014.5
20210918171610 72 217 3.0 7.0 0.00 0.00 0.00 39 1014.9
20210918170110 71 178 4.0 7.0 0.00 0.00 0.00 41 1015.1
20210918164738 70 117 2.0 7.0 0.00 0.00 0.00 44 1015.4
20210918163205 68 129 2.0 6.0 0.00 0.00 0.00 39 1015.6
20210918161540 66 161 2.0 8.0 0.00 0.00 0.00 50 1015.8
20210918160053 64 169 3.0 6.0 0.00 0.00 0.00 53 1015.8
20210918154603 63 148 3.0 7.0 0.00 0.00 0.00 56 1016.1
20210918153020 61 231 1.0 6.0 0.00 0.00 0.00 57 1016.4
20210918151523 61 133 5.0 7.0 0.00 0.00 0.00 61 1016.4
20210918150011 59 155 2.0 5.0 0.00 0.00 0.00 64 1016.7
20210918144515 57 117 0.0 2.0 0.00 0.00 0.00 68 1016.6
20210918141702 50 169 3.0 5.0 0.00 0.00 0.00 82 1016.8
20210918140123 47 223 1.0 5.0 0.00 0.00 0.00 84 1016.8
20210918134614 45 238 0.0 3.0 0.00 0.00 0.00 85 1016.9
20210918133100 45 236 3.0 5.0 0.00 0.00 0.00 82 1017.0
20210918131713 46 234 3.0 5.0 0.00 0.00 0.00 76 1016.8
20210918130101 47 302 2.0 5.0 0.00 0.00 0.00 74 1016.8
20210918124600 46 229 1.0 4.0 0.00 0.00 0.00 76 1016.7
20210918123054 47 231 2.0 3.0 0.00 0.00 0.00 76 1016.7
20210918121539 46 262 3.0 6.0 0.00 0.00 0.00 81 1016.6
20210918120050 48 295 3.0 5.0 0.00 0.00 0.00 80 1016.6
20210918114638 47 283 3.0 5.0 0.00 0.00 0.00 84 1016.5
20210918113059 46 253 2.0 5.0 0.00 0.00 0.00 76 1016.6
20210918111528 45 260 3.0 6.0 0.00 0.00 0.00 82 1016.7
20210918110101 49 135 2.0 6.0 0.00 0.00 0.00 72 1016.9
20210918104534 47 264 4.0 7.0 0.00 0.00 0.00 75 1017.0
20210918103059 48 252 3.0 5.0 0.00 0.00 0.00 74 1017.0
20210918101538 48 231 2.0 4.0 0.00 0.00 0.00 73 1017.1
20210918100040 48 255 2.0 6.0 0.00 0.00 0.00 74 1017.0
20210918094529 46 257 3.0 5.0 0.00 0.00 0.00 81 1017.2
20210918093022 48 213 1.0 2.0 0.00 0.00 0.00 75 1017.2
20210918091526 47 297 2.0 3.0 0.00 0.00 0.00 77 1017.1
20210918090016 49 240 2.0 4.0 0.00 0.00 0.00 73 1017.4
20210918084516 52 234 1.0 5.0 0.00 0.00 0.00 68 1017.4
20210918083017 50 288 2.0 4.0 0.00 0.00 0.00 73 1017.3
20210918081508 49 269 1.0 4.0 0.00 0.00 0.00 77 1017.4
20210918080020 50 295 2.0 4.0 0.00 0.00 0.00 74 1017.4
20210918074510 51 324 2.0 5.0 0.00 0.00 0.00 72 1017.4
20210918073014 51 258 3.0 6.0 0.00 0.00 0.00 70 1017.3
20210918071648 54 252 3.0 5.0 0.00 0.00 0.00 65 1017.2
20210918071501 54 250 3.0 5.0 0.00 0.00 0.00 65 1017.2
20210918070152 52 255 3.0 5.0 0.00 0.00 0.00 68 1017.2
20210918064712 54 269 2.0 6.0 0.00 0.00 0.00 66 1017.4
20210918063111 52 288 3.0 7.0 0.00 0.00 0.00 72 1017.3
20210918061621 51 248 4.0 6.0 0.00 0.00 0.00 77 1017.2
20210918060104 53 46 1.0 5.0 0.00 0.00 0.00 71 1017.0